This is the latest recevied weather packets stored in our database for station/object NK2J. If no packets are shown the sender has not sent any weather packets the latest 1 day(s).
| Time | Temp. | Humidity | Pressure | Rain* | Wind** | Luminosity | Snow |
|---|---|---|---|---|---|---|---|
| 1778024869 | 24.44° C | 26% | 1011.3 hPa | 0 mm | 0.45 m/s, 47° | 303 W/m² | - |
| 1778024567 | 23.89° C | 27% | 1011.5 hPa | 0 mm | 1.79 m/s, 109° | 325 W/m² | - |
| 1778024263 | 24.44° C | 27% | 1011.4 hPa | 0 mm | 1.34 m/s, 107° | 71 W/m² | - |
| 1778023962 | 24.44° C | 27% | 1011.3 hPa | 0 mm | 0.89 m/s, 44° | 343 W/m² | - |
| 1778023658 | 24.44° C | 26% | 1011.2 hPa | 0 mm | 0.89 m/s, 76° | 358 W/m² | - |
| 1778023356 | 24.44° C | 28% | 1011.4 hPa | 0 mm | 0 m/s | 368 W/m² | - |
| 1778023052 | 25° C | 27% | 1011.3 hPa | 0 mm | 2.68 m/s, 99° | 377 W/m² | - |
| 1778022752 | 24.44° C | 28% | 1011.2 hPa | 0 mm | 1.34 m/s, 24° | 284 W/m² | - |
| 1778022449 | 25° C | 27% | 1011.4 hPa | 0 mm | 0.89 m/s, 350° | 417 W/m² | - |
| 1778022146 | 25° C | 27% | 1011.2 hPa | 0 mm | 0 m/s | 443 W/m² | - |
| 1778021842 | 24.44° C | 27% | 1011.2 hPa | 0 mm | 1.34 m/s, 62° | 451 W/m² | - |
| 1778021540 | 24.44° C | 27% | 1011.4 hPa | 0 mm | 2.68 m/s, 56° | 467 W/m² | - |
| 1778021235 | 25° C | 27% | 1011.4 hPa | 0 mm | 1.79 m/s, 115° | 477 W/m² | - |
| 1778020933 | 25° C | 27% | 1011.4 hPa | 0 mm | 3.58 m/s, 65° | 494 W/m² | - |
| 1778020630 | 25° C | 27% | 1011.4 hPa | 0 mm | 1.34 m/s, 27° | 520 W/m² | - |
| 1778020326 | 24.44° C | 28% | 1011.5 hPa | 0 mm | 1.34 m/s, 43° | 113 W/m² | - |
| 1778020022 | 25° C | 28% | 1011.4 hPa | 0 mm | 0.89 m/s, 90° | 530 W/m² | - |
| 1778019718 | 25.56° C | 27% | 1011.5 hPa | 0 mm | 0.89 m/s, 94° | 525 W/m² | - |
| 1778019416 | 25.56° C | 26% | 1011.6 hPa | 0 mm | 0.89 m/s, 54° | 529 W/m² | - |
| 1778019112 | 25° C | 30% | 1011.6 hPa | 0 mm | 1.34 m/s, 17° | 556 W/m² | - |
| 1778018809 | 25° C | 30% | 1011.7 hPa | 0 mm | 0.89 m/s, 39° | 573 W/m² | - |
| 1778018507 | 24.44° C | 30% | 1011.7 hPa | 0 mm | 2.24 m/s, 116° | 614 W/m² | - |
| 1778018204 | 25° C | 29% | 1011.7 hPa | 0 mm | 2.24 m/s, 57° | 596 W/m² | - |
| 1778017902 | 25° C | 30% | 1011.7 hPa | 0 mm | 1.34 m/s, 71° | 609 W/m² | - |
| 1778017600 | 24.44° C | 30% | 1011.9 hPa | 0 mm | 0 m/s | 646 W/m² | - |
* Rain latest hour (hover to see other rain measurements)
** Current wind speed in m/s (hover to see current wind gust speed)